Date,TemperatureHighF,TemperatureAvgF,TemperatureLowF,DewpointHighF,DewpointAvgF,DewpointLowF,HumidityHigh,HumidityAvg,HumidityLow,PressureMaxIn,PressureMinIn,WindSpeedMaxMPH,WindSpeedAvgMPH,GustSpeedMaxMPH,PrecipitationSumIn
2014-3-1,6,-2,-9,-5,-16,-23,64,51,41,30.60,30.22,3,2,12,0.00
2014-3-2,7,-6,-19,-13,-20,-29,64,50,35,30.66,30.56,4,2,13,0.00
2014-3-3,12,0,-16,1,-11,-24,77,61,43,30.61,30.29,5,1,10,0.00
2014-3-4,22,13,7,7,3,-2,76,65,52,30.33,30.20,4,2,13,0.00
2014-3-5,27,18,8,11,6,0,72,60,47,30.49,30.33,4,2,12,0.00
2014-3-6,28,21,14,21,14,5,81,73,65,30.35,29.81,8,5,18,0.00
2014-3-7,36,29,22,31,23,14,87,78,68,30.20,29.76,4,1,17,0.00
2014-3-8,32,22,12,15,12,7,81,65,44,30.35,30.16,3,1,11,0.01
2014-3-9,47,33,17,35,25,12,83,71,57,30.16,29.63,7,3,18,0.00
2014-3-10,55,44,32,39,35,31,100,72,52,29.66,29.57,6,2,19,0.01
2014-3-11,44,39,29,32,26,18,79,62,41,30.01,29.66,3,1,14,0.00
2014-3-12,32,24,16,19,11,6,71,57,39,30.15,30.01,2,1,12,0.01
2014-3-13,52,38,19,37,28,12,86,68,48,30.02,29.47,4,2,12,0.00
2014-3-14,44,38,25,36,28,15,81,69,54,29.95,29.45,11,4,24,0.00
2014-3-15,32,24,16,16,12,4,80,59,40,30.43,29.96,6,1,14,0.00
2014-3-16,27,19,8,12,3,-2,64,51,32,30.53,30.02,5,2,13,0.00
2014-3-17,38,29,23,27,21,13,84,71,61,30.02,29.56,8,5,19,0.00
2014-3-18,37,31,27,31,25,20,96,79,66,29.81,29.64,7,4,22,0.02
2014-3-19,37,32,26,30,26,21,96,77,63,29.98,29.80,5,1,14,0.00
2014-3-20,48,35,21,33,27,18,98,74,44,30.01,29.87,3,0,11,0.00
2014-3-21,45,35,22,35,27,14,81,74,61,30.16,29.70,7,3,26,0.00
2014-3-22,24,15,6,13,3,-4,71,58,44,30.54,30.17,5,2,17,0.00
2014-3-23,29,16,4,12,5,-2,77,61,42,30.56,30.38,4,1,16,0.01
2014-3-24,32,21,10,22,11,5,82,68,39,30.39,30.12,8,1,20,0.01
2014-3-25,24,17,7,14,2,-5,75,53,40,30.32,30.13,6,2,17,0.05
2014-3-26,40,26,8,26,15,3,81,63,47,30.19,29.56,12,6,27,0.04
2014-3-27,46,41,36,46,39,26,100,93,60,29.73,29.43,7,2,19,0.25
2014-3-28,39,32,22,33,21,13,88,65,41,30.26,29.73,3,0,12,0.01
2014-3-29,46,32,15,27,18,11,85,58,32,30.30,30.05,6,2,16,0.00
2014-3-30,60,47,36,42,35,27,80,65,47,30.04,29.74,7,4,17,0.00
2014-3-31,54,48,33,48,40,29,87,73,63,29.73,29.28,9,5,22,0.00